Location: Unspecified
(0.0000°N, 0.0000°E)
Time: 16:57:51
(UTC+00:00)

AO-73 - Pass Details

Date: 25 September 2021
Orbit: 580 x 662 km, 97.6° (Epoch: 22 October)

Event Time Altitude Azimuth Distance (km) Brightness Sun altitude
Rises 03:44:43 0° 30° (NNE) 2,790 ? -31.7°
Reaches altitude 10° 03:47:05 10° 41° (NE) 1,889 ? -31.2°
Maximum altitude 03:50:38 29° 102° (ESE) 1,082 ? -30.3°
Drops below altitude 10° 03:54:10 10° 162° (SSE) 1,895 ? -29.4°
Sets 03:56:33 0° 173° (S) 2,801 ? -28.8°
